When you browse on this site, cookies collect data to enhance your experience and personalize the content and advertising you see.
Visit our Privacy Policy to learn more. By continuing to use the site, you agree to this use of cookies and data.

Stündliche Wetter Zastavtsi

Heute, 10 Juli, Freitag

Zeit Temperatur Niederschläge Wind Luftdruck Luftfeuchtigkeit
00:00 +14°C° 0 mm 1 m/S 739 mmHg 89%
01:00 +13°C° 0 mm 1 m/S 739 mmHg 90%
02:00 +13°C° 0 mm 2 m/S 739 mmHg 91%
03:00 +13°C° 0 mm 2 m/S 739 mmHg 92%
04:00 +14°C° 0 mm 2 m/S 739 mmHg 92%
05:00 +14°C° 0 mm 2 m/S 739 mmHg 92%
06:00 +14°C° 0 mm 3 m/S 739 mmHg 88%
07:00 +17°C° 0 mm 3 m/S 739 mmHg 84%
08:00 +19°C° 0 mm 3 m/S 740 mmHg 80%
09:00 +20°C° 0 mm 4 m/S 740 mmHg 75%
10:00 +22°C° 0 mm 4 m/S 740 mmHg 71%
11:00 +23°C° 0 mm 4 m/S 739 mmHg 67%
12:00 +25°C° 0 mm 4 m/S 739 mmHg 66%
13:00 +26°C° 0 mm 4 m/S 739 mmHg 65%
14:00 +27°C° 0 mm 4 m/S 739 mmHg 64%
15:00 +27°C° 0.2 mm 4 m/S 739 mmHg 65%
16:00 +27°C° 0.2 mm 3 m/S 739 mmHg 67%
17:00 +27°C° 0.2 mm 3 m/S 738 mmHg 68%
18:00 +25°C° 0 mm 3 m/S 738 mmHg 72%
19:00 +24°C° 0 mm 3 m/S 738 mmHg 77%
20:00 +21°C° 0 mm 3 m/S 738 mmHg 82%
21:00 +21°C° 0 mm 3 m/S 738 mmHg 82%
22:00 +20°C° 0 mm 3 m/S 738 mmHg 82%
23:00 +19°C° 0 mm 3 m/S 738 mmHg 83%

Morgen, 11 Juli, Samstag

Zeit Temperatur Niederschläge Wind Luftdruck Luftfeuchtigkeit
00:00 +18°C° 0 mm 3 m/S 738 mmHg 83%
01:00 +18°C° 0 mm 3 m/S 738 mmHg 83%
02:00 +18°C° 0 mm 3 m/S 739 mmHg 83%
03:00 +18°C° 0 mm 3 m/S 738 mmHg 85%
04:00 +17°C° 0 mm 3 m/S 738 mmHg 86%
05:00 +17°C° 0 mm 3 m/S 738 mmHg 87%
06:00 +19°C° 0 mm 4 m/S 738 mmHg 82%
07:00 +21°C° 0 mm 4 m/S 738 mmHg 76%
08:00 +23°C° 0 mm 5 m/S 738 mmHg 71%
09:00 +25°C° 0 mm 5 m/S 739 mmHg 68%
10:00 +26°C° 0 mm 5 m/S 739 mmHg 64%
11:00 +27°C° 0 mm 5 m/S 739 mmHg 61%
12:00 +28°C° 0 mm 5 m/S 738 mmHg 60%
13:00 +28°C° 0 mm 5 m/S 738 mmHg 60%
14:00 +29°C° 0 mm 5 m/S 738 mmHg 59%
15:00 +28°C° 0 mm 4 m/S 738 mmHg 61%
16:00 +28°C° 0 mm 4 m/S 737 mmHg 63%
17:00 +28°C° 0 mm 4 m/S 737 mmHg 65%
18:00 +26°C° 0 mm 3 m/S 737 mmHg 69%
19:00 +25°C° 0 mm 3 m/S 737 mmHg 74%
20:00 +22°C° 0 mm 3 m/S 737 mmHg 78%
21:00 +21°C° 0 mm 2 m/S 737 mmHg 79%
22:00 +20°C° 0 mm 2 m/S 737 mmHg 80%
23:00 +19°C° 0 mm 2 m/S 737 mmHg 82%

übermorgen, 12 Juli, Sonntag

Zeit Temperatur Niederschläge Wind Luftdruck Luftfeuchtigkeit
00:00 +19°C° 0 mm 2 m/S 737 mmHg 82%
01:00 +19°C° 0 mm 2 m/S 737 mmHg 83%
02:00 +18°C° 0 mm 2 m/S 737 mmHg 84%
03:00 +18°C° 0 mm 2 m/S 737 mmHg 86%
04:00 +18°C° 0 mm 1 m/S 736 mmHg 87%
05:00 +18°C° 0 mm 1 m/S 736 mmHg 89%
06:00 +20°C° 0 mm 1 m/S 737 mmHg 85%
07:00 +21°C° 0 mm 1 m/S 737 mmHg 81%
08:00 +23°C° 0 mm 2 m/S 737 mmHg 77%
09:00 +23°C° 0.1 mm 2 m/S 737 mmHg 77%
10:00 +22°C° 0.1 mm 3 m/S 737 mmHg 78%
11:00 +24°C° 0.1 mm 3 m/S 737 mmHg 78%
12:00 +21°C° 0.6 mm 5 m/S 737 mmHg 81%
13:00 +20°C° 0.6 mm 6 m/S 737 mmHg 85%
14:00 +17°C° 0.6 mm 7 m/S 737 mmHg 88%
15:00 +15°C° 0.1 mm 7 m/S 737 mmHg 89%
16:00 +13°C° 0.1 mm 8 m/S 737 mmHg 90%
17:00 +11°C° 0.1 mm 8 m/S 737 mmHg 91%
18:00 +11°C° 0.2 mm 8 m/S 737 mmHg 91%
19:00 +10°C° 0.2 mm 7 m/S 738 mmHg 91%
20:00 +10°C° 0.2 mm 7 m/S 738 mmHg 91%
21:00 +9°C° 0.2 mm 7 m/S 738 mmHg 92%
22:00 +9°C° 0.2 mm 7 m/S 738 mmHg 92%
23:00 +9°C° 0.2 mm 6 m/S 738 mmHg 93%

13 Juli, Montag

Zeit Temperatur Niederschläge Wind Luftdruck Luftfeuchtigkeit
00:00 +9°C° 0 mm 6 m/S 738 mmHg 93%
01:00 +9°C° 0 mm 6 m/S 738 mmHg 93%
02:00 +8°C° 0 mm 6 m/S 738 mmHg 93%
03:00 +8°C° 0 mm 6 m/S 738 mmHg 93%
04:00 +8°C° 0 mm 6 m/S 738 mmHg 93%
05:00 +8°C° 0 mm 5 m/S 738 mmHg 93%
06:00 +9°C° 0 mm 6 m/S 738 mmHg 90%
07:00 +11°C° 0 mm 6 m/S 738 mmHg 86%
08:00 +13°C° 0 mm 6 m/S 738 mmHg 83%
09:00 +15°C° 0 mm 6 m/S 738 mmHg 77%
10:00 +16°C° 0 mm 7 m/S 738 mmHg 72%
11:00 +17°C° 0 mm 7 m/S 738 mmHg 66%
12:00 +18°C° 0.1 mm 7 m/S 738 mmHg 64%
13:00 +18°C° 0.1 mm 7 m/S 738 mmHg 61%
14:00 +18°C° 0.1 mm 7 m/S 737 mmHg 59%
15:00 +18°C° 0.1 mm 7 m/S 737 mmHg 62%
16:00 +19°C° 0.1 mm 6 m/S 737 mmHg 65%
17:00 +17°C° 0.1 mm 6 m/S 736 mmHg 68%
18:00 +16°C° 0 mm 5 m/S 736 mmHg 73%
19:00 +15°C° 0 mm 5 m/S 736 mmHg 79%
20:00 +13°C° 0 mm 4 m/S 736 mmHg 85%
21:00 +12°C° 0 mm 4 m/S 736 mmHg 87%
22:00 +11°C° 0 mm 4 m/S 736 mmHg 89%
23:00 +10°C° 0 mm 3 m/S 737 mmHg 92%

14 Juli, Dienstag

Zeit Temperatur Niederschläge Wind Luftdruck Luftfeuchtigkeit
00:00 +10°C° 0 mm 3 m/S 737 mmHg 92%
01:00 +10°C° 0 mm 3 m/S 737 mmHg 93%
02:00 +9°C° 0 mm 3 m/S 737 mmHg 94%
03:00 +9°C° 0 mm 3 m/S 737 mmHg 95%
04:00 +9°C° 0 mm 3 m/S 736 mmHg 95%
05:00 +9°C° 0 mm 3 m/S 736 mmHg 96%
06:00 +11°C° 0 mm 4 m/S 736 mmHg 92%
07:00 +13°C° 0 mm 4 m/S 737 mmHg 88%
08:00 +15°C° 0 mm 5 m/S 737 mmHg 84%
09:00 +16°C° 0.1 mm 5 m/S 737 mmHg 78%
10:00 +17°C° 0.1 mm 5 m/S 737 mmHg 72%
11:00 +20°C° 0.1 mm 5 m/S 737 mmHg 66%
12:00 +20°C° 0 mm 5 m/S 737 mmHg 64%
13:00 +21°C° 0 mm 4 m/S 737 mmHg 62%
14:00 +21°C° 0 mm 4 m/S 736 mmHg 61%
15:00 +21°C° 0.1 mm 4 m/S 736 mmHg 62%
16:00 +21°C° 0.1 mm 4 m/S 736 mmHg 64%
17:00 +21°C° 0.1 mm 4 m/S 736 mmHg 65%
18:00 +19°C° 0.5 mm 3 m/S 736 mmHg 72%
19:00 +18°C° 0.5 mm 3 m/S 736 mmHg 79%
20:00 +16°C° 0.5 mm 2 m/S 736 mmHg 85%
21:00 +15°C° 0 mm 2 m/S 737 mmHg 88%
22:00 +14°C° 0 mm 2 m/S 737 mmHg 90%
23:00 +14°C° 0 mm 2 m/S 737 mmHg 92%

15 Juli, Mittwoch

Zeit Temperatur Niederschläge Wind Luftdruck Luftfeuchtigkeit
00:00 +13°C° 0 mm 2 m/S 737 mmHg 92%
01:00 +13°C° 0 mm 2 m/S 737 mmHg 93%
02:00 +12°C° 0 mm 2 m/S 738 mmHg 93%
03:00 +12°C° 0 mm 2 m/S 738 mmHg 93%
04:00 +12°C° 0 mm 2 m/S 738 mmHg 93%
05:00 +12°C° 0 mm 1 m/S 738 mmHg 93%
06:00 +14°C° 0 mm 1 m/S 738 mmHg 87%
07:00 +15°C° 0 mm 1 m/S 738 mmHg 82%
08:00 +18°C° 0 mm 1 m/S 739 mmHg 76%
09:00 +19°C° 0 mm 1 m/S 739 mmHg 70%
10:00 +21°C° 0 mm 1 m/S 739 mmHg 63%
11:00 +22°C° 0 mm 1 m/S 739 mmHg 57%
12:00 +22°C° 0 mm 1 m/S 739 mmHg 56%
13:00 +23°C° 0 mm 1 m/S 739 mmHg 54%
14:00 +23°C° 0 mm 1 m/S 739 mmHg 53%
15:00 +23°C° 0 mm 1 m/S 738 mmHg 54%
16:00 +23°C° 0 mm 1 m/S 738 mmHg 55%
17:00 +23°C° 0 mm 1 m/S 738 mmHg 57%
18:00 +21°C° 0 mm 1 m/S 738 mmHg 62%
19:00 +20°C° 0 mm 1 m/S 738 mmHg 68%
20:00 +18°C° 0 mm 1 m/S 738 mmHg 74%
21:00 +16°C° 0 mm 1 m/S 738 mmHg 76%
22:00 +16°C° 0 mm 1 m/S 738 mmHg 78%
23:00 +15°C° 0 mm 2 m/S 738 mmHg 79%
Mehr zeigen